| time (UTC) | temp F | wind direction | speed MPH | gust MPH | rain 1hr in | rain 24hr in | rain mn in | humidity % | barometer mb |
| 20260504050552 | 58 | 213 | 0.0 | 4.0 | 0.00 | 0.00 | 0.00 | 67 | 1008.1 |
| 20260504045555 | 58 | 227 | 0.0 | 2.0 | 0.00 | 0.00 | 0.00 | 66 | 1008.1 |
| 20260504045052 | 59 | 201 | 0.0 | 2.0 | 0.00 | 0.00 | 0.00 | 66 | 1008.1 |
| 20260504044601 | 59 | 221 | 0.0 | 2.0 | 0.00 | 0.00 | 0.00 | 66 | 1008.1 |
| 20260504044053 | 59 | 207 | 0.0 | 0.0 | 0.00 | 0.00 | 0.00 | 66 | 1008.1 |
| 20260504043551 | 59 | 212 | 0.0 | 3.0 | 0.00 | 0.00 | 0.00 | 66 | 1008.2 |
| 20260504043051 | 59 | 221 | 0.0 | 3.0 | 0.00 | 0.00 | 0.00 | 66 | 1008.3 |
| 20260504042550 | 59 | 198 | 0.0 | 2.0 | 0.00 | 0.00 | 0.00 | 66 | 1008.3 |
| 20260504042051 | 59 | 240 | 0.0 | 2.0 | 0.00 | 0.00 | 0.00 | 66 | 1008.3 |
| 20260504041550 | 59 | 200 | 0.0 | 1.0 | 0.00 | 0.00 | 0.00 | 66 | 1008.3 |
| 20260504041052 | 59 | 130 | 0.0 | 0.0 | 0.00 | 0.00 | 0.00 | 66 | 1008.3 |
| 20260504040551 | 59 | 246 | 0.0 | 3.0 | 0.00 | 0.00 | 0.00 | 66 | 1008.3 |
| 20260504035551 | 59 | 216 | 0.0 | 2.0 | 0.00 | 0.00 | 0.00 | 65 | 1008.3 |
| 20260504035050 | 59 | 220 | 0.0 | 3.0 | 0.00 | 0.00 | 0.00 | 65 | 1008.4 |
| 20260504034554 | 59 | 219 | 0.0 | 3.0 | 0.00 | 0.00 | 0.00 | 65 | 1008.4 |
| 20260504034050 | 60 | 233 | 0.0 | 1.0 | 0.00 | 0.00 | 0.00 | 64 | 1008.5 |
| 20260504033550 | 60 | 238 | 0.0 | 2.0 | 0.00 | 0.00 | 0.00 | 64 | 1008.5 |
| 20260504033056 | 60 | 228 | 0.0 | 2.0 | 0.00 | 0.00 | 0.00 | 63 | 1008.5 |
| 20260504032554 | 61 | 236 | 0.0 | 1.0 | 0.00 | 0.00 | 0.00 | 63 | 1008.6 |
| 20260504032050 | 61 | 200 | 0.0 | 2.0 | 0.00 | 0.00 | 0.00 | 63 | 1008.6 |
| 20260504031550 | 61 | 264 | 0.0 | 2.0 | 0.00 | 0.00 | 0.00 | 62 | 1008.6 |
| 20260504031049 | 61 | 259 | 0.0 | 4.0 | 0.00 | 0.00 | 0.00 | 62 | 1008.6 |
| 20260504030553 | 61 | 229 | 0.0 | 2.0 | 0.00 | 0.00 | 0.00 | 62 | 1008.6 |
| 20260504025549 | 61 | 259 | 0.0 | 2.0 | 0.00 | 0.00 | 0.00 | 61 | 1008.6 |
| 20260504025049 | 61 | 219 | 0.0 | 3.0 | 0.00 | 0.00 | 0.00 | 61 | 1008.5 |
| 20260504024549 | 61 | 274 | 0.0 | 3.0 | 0.00 | 0.00 | 0.00 | 61 | 1008.5 |
| 20260504024049 | 62 | 227 | 0.0 | 2.0 | 0.00 | 0.00 | 0.00 | 61 | 1008.5 |
| 20260504023549 | 62 | 214 | 0.0 | 2.0 | 0.00 | 0.00 | 0.00 | 60 | 1008.4 |
| 20260504023049 | 62 | 262 | 0.0 | 3.0 | 0.00 | 0.00 | 0.00 | 60 | 1008.4 |
| 20260504022549 | 62 | 208 | 0.0 | 3.0 | 0.00 | 0.00 | 0.00 | 60 | 1008.4 |
| 20260504022052 | 62 | 239 | 0.0 | 3.0 | 0.00 | 0.00 | 0.00 | 60 | 1008.4 |
| 20260504021549 | 62 | 239 | 0.0 | 5.0 | 0.00 | 0.00 | 0.00 | 60 | 1008.3 |
| 20260504021050 | 62 | 214 | 0.0 | 5.0 | 0.00 | 0.00 | 0.00 | 60 | 1008.3 |
| 20260504020551 | 62 | 203 | 0.0 | 5.0 | 0.00 | 0.00 | 0.00 | 60 | 1008.4 |
| 20260504015549 | 62 | 205 | 0.0 | 3.0 | 0.00 | 0.00 | 0.00 | 60 | 1008.4 |
| 20260504015051 | 62 | 254 | 0.0 | 0.0 | 0.00 | 0.00 | 0.00 | 60 | 1008.4 |
| 20260504014550 | 62 | 232 | 0.0 | 3.0 | 0.00 | 0.00 | 0.00 | 59 | 1008.4 |
| 20260504014048 | 62 | 258 | 0.0 | 3.0 | 0.00 | 0.00 | 0.00 | 59 | 1008.4 |
| 20260504013548 | 63 | 213 | 0.0 | 4.0 | 0.00 | 0.00 | 0.00 | 59 | 1008.3 |
| 20260504013051 | 63 | 247 | 0.0 | 4.0 | 0.00 | 0.00 | 0.00 | 58 | 1008.3 |
| 20260504012551 | 63 | 244 | 0.0 | 3.0 | 0.00 | 0.00 | 0.00 | 58 | 1008.3 |
| 20260504012048 | 63 | 200 | 0.0 | 2.0 | 0.00 | 0.00 | 0.00 | 58 | 1008.2 |
| 20260504011550 | 63 | 248 | 0.0 | 4.0 | 0.00 | 0.00 | 0.00 | 58 | 1008.2 |
| 20260504011049 | 63 | 271 | 0.0 | 4.0 | 0.00 | 0.00 | 0.00 | 58 | 1008.1 |
| 20260504010547 | 63 | 240 | 0.0 | 2.0 | 0.00 | 0.00 | 0.00 | 57 | 1008.1 |
| 20260504005546 | 64 | 198 | 0.0 | 0.0 | 0.00 | 0.00 | 0.00 | 56 | 1008.1 |
| 20260504005146 | 64 | 253 | 0.0 | 0.0 | 0.00 | 0.00 | 0.00 | 56 | 1008.1 |
| 20260504004545 | 65 | 252 | 0.0 | 0.0 | 0.00 | 0.00 | 0.00 | 56 | 1008.1 |
| 20260504004046 | 65 | 248 | 0.0 | 1.0 | 0.00 | 0.00 | 0.00 | 55 | 1008.1 |
| 20260504003550 | 65 | 243 | 0.0 | 3.0 | 0.00 | 0.00 | 0.00 | 55 | 1008.1 |
| 20260504003045 | 65 | 252 | 0.0 | 3.0 | 0.00 | 0.00 | 0.00 | 54 | 1008.1 |
| 20260504002546 | 66 | 242 | 0.0 | 3.0 | 0.00 | 0.00 | 0.00 | 54 | 1008.1 |
| 20260504002044 | 66 | 253 | 0.0 | 4.0 | 0.00 | 0.00 | 0.00 | 54 | 1008.1 |
| 20260504001605 | 66 | 247 | 0.0 | 4.0 | 0.00 | 0.00 | 0.00 | 54 | 1008.0 |
| 20260504001044 | 66 | 230 | 1.0 | 4.0 | 0.00 | 0.00 | 0.00 | 53 | 1008.1 |
| 20260504000544 | 67 | 240 | 1.0 | 4.0 | 0.00 | 0.00 | 0.00 | 53 | 1008.1 |
| 20260503235546 | 67 | 276 | 0.0 | 8.0 | 0.00 | 0.00 | 0.00 | 52 | 1008.1 |
| 20260503235044 | 67 | 238 | 0.0 | 3.0 | 0.00 | 0.00 | 0.00 | 52 | 1008.2 |
| 20260503234544 | 67 | 248 | 1.0 | 3.0 | 0.00 | 0.00 | 0.00 | 52 | 1008.2 |
| 20260503234044 | 67 | 233 | 0.0 | 6.0 | 0.00 | 0.00 | 0.00 | 52 | 1008.2 |
| 20260503233543 | 68 | 257 | 1.0 | 6.0 | 0.00 | 0.00 | 0.00 | 51 | 1008.2 |
| 20260503233043 | 68 | 240 | 1.0 | 4.0 | 0.00 | 0.00 | 0.00 | 50 | 1008.2 |
| 20260503232546 | 68 | 250 | 1.0 | 4.0 | 0.00 | 0.00 | 0.00 | 51 | 1008.2 |
| 20260503232042 | 68 | 257 | 0.0 | 4.0 | 0.00 | 0.00 | 0.00 | 50 | 1008.3 |
| 20260503231542 | 68 | 233 | 0.0 | 8.0 | 0.00 | 0.00 | 0.00 | 49 | 1008.3 |
| 20260503231045 | 68 | 252 | 0.0 | 8.0 | 0.00 | 0.00 | 0.00 | 50 | 1008.4 |
| 20260503230541 | 68 | 235 | 2.0 | 7.0 | 0.00 | 0.00 | 0.00 | 48 | 1008.4 |
| 20260503225541 | 69 | 263 | 2.0 | 6.0 | 0.00 | 0.00 | 0.00 | 47 | 1008.4 |
| 20260503225041 | 69 | 260 | 1.0 | 6.0 | 0.00 | 0.00 | 0.00 | 48 | 1008.5 |
| 20260503224540 | 68 | 259 | 2.0 | 7.0 | 0.00 | 0.00 | 0.00 | 47 | 1008.5 |
| 20260503224040 | 68 | 248 | 3.0 | 7.0 | 0.00 | 0.00 | 0.00 | 47 | 1008.5 |
| 20260503223542 | 69 | 221 | 2.0 | 6.0 | 0.00 | 0.00 | 0.00 | 47 | 1008.5 |
| 20260503223042 | 69 | 274 | 2.0 | 6.0 | 0.00 | 0.00 | 0.00 | 45 | 1008.5 |
| 20260503222538 | 69 | 250 | 1.0 | 6.0 | 0.00 | 0.00 | 0.00 | 46 | 1008.5 |
| 20260503222038 | 69 | 262 | 2.0 | 7.0 | 0.00 | 0.00 | 0.00 | 46 | 1008.7 |
| 20260503221542 | 69 | 245 | 1.0 | 7.0 | 0.00 | 0.00 | 0.00 | 47 | 1008.7 |
| 20260503221036 | 69 | 250 | 3.0 | 6.0 | 0.00 | 0.00 | 0.00 | 45 | 1008.7 |
| 20260503220537 | 69 | 243 | 1.0 | 11.0 | 0.00 | 0.00 | 0.00 | 47 | 1008.8 |
| 20260503215537 | 69 | 230 | 4.0 | 11.0 | 0.00 | 0.00 | 0.00 | 46 | 1008.9 |
| 20260503215036 | 69 | 238 | 4.0 | 9.0 | 0.00 | 0.00 | 0.00 | 46 | 1008.8 |
| 20260503214535 | 68 | 259 | 2.0 | 8.0 | 0.00 | 0.00 | 0.00 | 48 | 1008.8 |
| 20260503214039 | 68 | 221 | 3.0 | 8.0 | 0.00 | 0.00 | 0.00 | 46 | 1008.9 |
| 20260503213534 | 68 | 222 | 2.0 | 6.0 | 0.00 | 0.00 | 0.00 | 48 | 1008.9 |
| 20260503213039 | 67 | 245 | 2.0 | 8.0 | 0.00 | 0.00 | 0.00 | 47 | 1009.0 |
| 20260503212535 | 67 | 274 | 2.0 | 9.0 | 0.00 | 0.00 | 0.00 | 47 | 1009.0 |
| 20260503212034 | 67 | 274 | 3.0 | 9.0 | 0.00 | 0.00 | 0.00 | 45 | 1009.1 |
| 20260503211540 | 67 | 242 | 2.0 | 7.0 | 0.00 | 0.00 | 0.00 | 48 | 1009.1 |
| 20260503211032 | 67 | 264 | 2.0 | 9.0 | 0.00 | 0.00 | 0.00 | 47 | 1009.1 |
| 20260503210532 | 67 | 250 | 2.0 | 11.0 | 0.00 | 0.00 | 0.00 | 45 | 1009.1 |
| 20260503205532 | 67 | 279 | 3.0 | 13.0 | 0.00 | 0.00 | 0.00 | 44 | 1009.1 |
| 20260503205032 | 67 | 254 | 5.0 | 13.0 | 0.00 | 0.00 | 0.00 | 44 | 1009.2 |
| 20260503204531 | 68 | 220 | 3.0 | 10.0 | 0.00 | 0.00 | 0.00 | 44 | 1009.2 |
| 20260503204031 | 68 | 285 | 3.0 | 11.0 | 0.00 | 0.00 | 0.00 | 42 | 1009.4 |
| 20260503203532 | 68 | 233 | 5.0 | 11.0 | 0.00 | 0.00 | 0.00 | 43 | 1009.2 |
| 20260503203034 | 68 | 255 | 2.0 | 9.0 | 0.00 | 0.00 | 0.00 | 44 | 1009.1 |
| 20260503202530 | 68 | 257 | 3.0 | 10.0 | 0.00 | 0.00 | 0.00 | 44 | 1009.5 |
| 20260503202031 | 68 | 216 | 3.0 | 12.0 | 0.00 | 0.00 | 0.00 | 42 | 1009.5 |
| 20260503201531 | 69 | 265 | 4.0 | 12.0 | 0.00 | 0.00 | 0.00 | 42 | 1009.5 |
| 20260503201028 | 69 | 88 | 3.0 | 15.0 | 0.00 | 0.00 | 0.00 | 42 | 1009.6 |
| 20260503200528 | 69 | 94 | 3.0 | 12.0 | 0.00 | 0.00 | 0.00 | 42 | 1009.7 |
| 20260503195528 | 68 | 247 | 4.0 | 16.0 | 0.00 | 0.00 | 0.00 | 43 | 1009.5 |
| 20260503195027 | 68 | 244 | 4.0 | 16.0 | 0.00 | 0.00 | 0.00 | 41 | 1009.8 |
| 20260503194530 | 69 | 177 | 5.0 | 10.0 | 0.00 | 0.00 | 0.00 | 40 | 1010.2 |
| 20260503194026 | 69 | 83 | 4.0 | 10.0 | 0.00 | 0.00 | 0.00 | 41 | 1010.1 |
| 20260503193528 | 69 | 219 | 4.0 | 11.0 | 0.00 | 0.00 | 0.00 | 41 | 1010.0 |
| 20260503193024 | 69 | 220 | 2.0 | 12.0 | 0.00 | 0.00 | 0.00 | 43 | 1010.1 |
| 20260503192523 | 69 | 91 | 2.0 | 13.0 | 0.00 | 0.00 | 0.00 | 42 | 1010.1 |
| 20260503192023 | 68 | 248 | 4.0 | 13.0 | 0.00 | 0.00 | 0.00 | 41 | 1010.3 |
| 20260503191525 | 68 | 240 | 3.0 | 11.0 | 0.00 | 0.00 | 0.00 | 43 | 1010.2 |
| 20260503191021 | 68 | 233 | 3.0 | 12.0 | 0.00 | 0.00 | 0.00 | 41 | 1010.1 |
| 20260503190520 | 68 | 26 | 3.0 | 12.0 | 0.00 | 0.00 | 0.00 | 42 | 1010.2 |
| 20260503185518 | 67 | 228 | 3.0 | 12.0 | 0.00 | 0.00 | 0.00 | 42 | 1010.1 |
| 20260503185019 | 67 | 101 | 4.0 | 13.0 | 0.00 | 0.00 | 0.00 | 42 | 1010.3 |
| 20260503184521 | 66 | 302 | 5.0 | 14.0 | 0.00 | 0.00 | 0.00 | 43 | 1010.4 |
| 20260503184014 | 66 | 219 | 5.0 | 17.0 | 0.00 | 0.00 | 0.00 | 44 | 1010.7 |
| 20260503183520 | 66 | 245 | 6.0 | 17.0 | 0.00 | 0.00 | 0.00 | 44 | 1010.7 |
| 20260503183023 | 66 | 274 | 5.0 | 13.0 | 0.00 | 0.00 | 0.00 | 44 | 1010.7 |
| 20260503182512 | 66 | 176 | 4.0 | 13.0 | 0.00 | 0.00 | 0.00 | 45 | 1010.7 |
| 20260503182010 | 65 | 241 | 3.0 | 12.0 | 0.00 | 0.00 | 0.00 | 46 | 1010.9 |
| 20260503181523 | 65 | 256 | 4.0 | 13.0 | 0.00 | 0.00 | 0.00 | 45 | 1011.0 |
| 20260503181009 | 64 | 308 | 5.0 | 16.0 | 0.00 | 0.00 | 0.00 | 46 | 1011.1 |
| 20260503180509 | 64 | 295 | 4.0 | 16.0 | 0.00 | 0.00 | 0.00 | 44 | 1011.0 |
| 20260503175507 | 63 | 19 | 2.0 | 14.0 | 0.00 | 0.00 | 0.00 | 48 | 1011.4 |
| 20260503175009 | 63 | 178 | 5.0 | 16.0 | 0.00 | 0.00 | 0.00 | 47 | 1011.7 |
| 20260503174504 | 62 | 148 | 7.0 | 17.0 | 0.00 | 0.00 | 0.00 | 49 | 1011.7 |
| 20260503174002 | 61 | 108 | 8.0 | 17.0 | 0.00 | 0.00 | 0.00 | 49 | 1012.0 |
| 20260503173502 | 61 | 98 | 3.0 | 18.0 | 0.00 | 0.00 | 0.00 | 49 | 1012.3 |
| 20260503173003 | 61 | 226 | 4.0 | 18.0 | 0.00 | 0.00 | 0.00 | 49 | 1012.5 |
| 20260503172500 | 61 | 231 | 4.0 | 11.0 | 0.00 | 0.00 | 0.00 | 49 | 1012.5 |
| 20260503172100 | 61 | 250 | 1.0 | 13.0 | 0.00 | 0.00 | 0.00 | 51 | 1012.5 |
| 20260503171558 | 60 | 72 | 4.0 | 13.0 | 0.00 | 0.00 | 0.00 | 50 | 1012.5 |
| 20260503171057 | 60 | 235 | 3.0 | 9.0 | 0.00 | 0.00 | 0.00 | 52 | 1013.0 |
| 20260503170556 | 60 | 300 | 3.0 | 9.0 | 0.00 | 0.00 | 0.00 | 51 | 1013.3 |
| 20260503170156 | 59 | 1 | 2.0 | 11.0 | 0.00 | 0.00 | 0.00 | 53 | 1013.7 |
| 20260503160150 | 57 | 262 | 1.0 | 7.0 | 0.00 | 0.00 | 0.00 | 55 | 1014.5 |
| 20260503150540 | 56 | 222 | 2.0 | 7.0 | 0.00 | 0.00 | 0.00 | 59 | 1015.4 |
| 20260503150139 | 55 | 103 | 3.0 | 9.0 | 0.00 | 0.00 | 0.00 | 62 | 1015.6 |
| 20260503140134 | 53 | 264 | 2.0 | 7.0 | 0.00 | 0.00 | 0.00 | 60 | 1016.1 |
| 20260503131025 | 49 | 108 | 0.0 | 3.0 | 0.00 | 0.00 | 0.00 | 67 | 1017.0 |
| 20260503130523 | 49 | 246 | 0.0 | 7.0 | 0.00 | 0.00 | 0.00 | 67 | 1016.9 |
| 20260503130124 | 49 | 249 | 0.0 | 6.0 | 0.00 | 0.00 | 0.00 | 69 | 1017.0 |
| 20260503120116 | 46 | 236 | 1.0 | 6.0 | 0.00 | 0.00 | 0.00 | 73 | 1016.9 |
| 20260503110517 | 44 | 287 | 0.0 | 4.0 | 0.00 | 0.00 | 0.00 | 73 | 1016.8 |
| 20260503110110 | 44 | 280 | 0.0 | 3.0 | 0.00 | 0.00 | 0.00 | 72 | 1016.8 |
| 20260503100133 | 45 | 141 | 0.0 | 5.0 | 0.00 | 0.00 | 0.00 | 68 | 1017.0 |
| 20260503090159 | 45 | 219 | 1.0 | 4.0 | 0.00 | 0.00 | 0.00 | 66 | 1017.3 |
| 20260503081557 | 46 | 301 | 0.0 | 5.0 | 0.00 | 0.00 | 0.00 | 64 | 1017.3 |
| 20260503081051 | 46 | 66 | 1.0 | 5.0 | 0.00 | 0.00 | 0.00 | 64 | 1017.4 |
| 20260503080552 | 46 | 221 | 0.0 | 4.0 | 0.00 | 0.00 | 0.00 | 64 | 1017.4 |
| 20260503072547 | 45 | 200 | 0.0 | 2.0 | 0.00 | 0.00 | 0.00 | 62 | 1017.5 |
| 20260503072045 | 45 | 222 | 0.0 | 3.0 | 0.00 | 0.00 | 0.00 | 62 | 1017.5 |
| 20260503071549 | 46 | 213 | 0.0 | 3.0 | 0.00 | 0.00 | 0.00 | 62 | 1017.6 |
| 20260503071047 | 46 | 218 | 0.0 | 3.0 | 0.00 | 0.00 | 0.00 | 61 | 1017.6 |
| 20260503070542 | 46 | 211 | 0.0 | 4.0 | 0.00 | 0.00 | 0.00 | 61 | 1017.6 |